Regional Weather Roundup
Issued by NWS

Home | Current Version | Previous Version | Graphics & Text | Print | Product List | Glossary On
Versions: 1 2 3 4 5 6 7 8 9 10 11 12 13 14 15 16 17 18 19 20 21 22 23 24 25 26 27 28 29 30 31 32 33 34 35 36 37 38 39 40 41 42 43 44 45 46 47 48 49 50
000
ASUS45 KCYS 040510
RWRWY

WYOMING REGIONAL WEATHER ROUNDUP
NATIONAL WEATHER SERVICE CHEYENNE WY
1100 PM MDT SUN MAY 03 2015

NOTE:  "FAIR" INDICATES FEW OR NO CLOUDS BELOW 12,000 FEET
WITH NO SIGNIFICANT WEATHER AND/OR OBSTRUCTIONS TO VISIBILITY.

WYZ001-040600-
YELLOWSTONE NATIONAL PARK

CITY           SKY/WX    TMP DP  RH WIND       PRES   REMARKS
LK YELLOWSTONE   N/A     32  30  92 NW3       30.12F
W YELLOWSTONE  NOT AVBL

$$
WYZ002>013-054>058-071-098>099-040600-
NORTHERN WYOMING

CITY           SKY/WX    TMP DP  RH WIND       PRES   REMARKS
JACKSON        MOCLDY    45  43  93 SE6       30.07S
CODY           CLOUDY    52  45  76 SW9       30.01F
GREYBULL       MOCLDY    62  38  40 S5        29.98R
WORLAND        CLOUDY    57  42  57 N6        29.99S
SHERIDAN       FAIR      50  39  66 SE3       30.02F
BUFFALO        CLOUDY    51  44  77 SE12      30.08S
GILLETTE       CLOUDY    50  45  83 SE10      30.07S
HULETT         RAIN      46  43  87 S5        30.10S
NEWCASTLE      FAIR      55  32  41 E16       30.05S

$$
WYZ014>020-022>026-101>103-040600-
CENTRAL WYOMING

CITY           SKY/WX    TMP DP  RH WIND       PRES   REMARKS
BIG PINEY      FAIR      43  38  82 NE10      30.12R
PINEDALE       MOCLDY    41  41 100 CALM      30.11F
DUBOIS         FAIR      43  36  75 W3        30.09S
LANDER         FAIR      52  41  66 NW15      30.02R
RIVERTON       FAIR      53  41  63 E8        30.04R
CASPER         CLOUDY    48  46  93 NW8       30.05R
DOUGLAS        LGT RAIN  49  47  93 E9        30.04F

$$
WYZ021-027>030-104>119-040600-
SOUTHERN WYOMING

CITY           SKY/WX    TMP DP  RH WIND       PRES   REMARKS
EVANSTON       MOCLDY    47  38  71 E15       30.07R
KEMMERER       FAIR      41  39  93 N8        30.10S
FORT BRIDGER   CLEAR     43  41  93 SE6       30.12R
ROCK SPRINGS   CLOUDY    47  38  71 SE14      30.04F
DIXON          LGT RAIN  50  42  71 S10       30.14R
RAWLINS        FAIR      42  38  85 E6        30.08S
SARATOGA       CLOUDY    45  41  87 SE14      30.10S
LARAMIE        FAIR      42  39  89 SE9       30.12S
CHEYENNE       CLOUDY    49  43  80 N3        30.11S
TORRINGTON     LGT RAIN  58  46  64 CALM      30.06S
PINE BLUFFS    DRIZZLE   52  46  82 NW9       30.10R

$$



USA.gov is the U.S. government's official web portal to all federal, state and local government web resources and services.